Location: Unspecified
(38.9820°N, 0.0000°E)
Time: 11:52:10
(UTC+00:00)

Tiangong 2 - Pass Details

Date: 25 May 2019
Orbit: 376 x 389 km, 42.8° (Epoch: 18 June)

Event Time Altitude Azimuth Distance (km) Brightness Sun altitude
Rises 20:44:45 0° 284° (WNW) 2,238 6.0 -15.0°
Reaches altitude 10° 20:46:54 10° 292° (WNW) 1,384 5.0 -15.3°
Maximum altitude 20:49:51 39° 4° (N) 579 2.3 -15.7°
Enters shadow 20:51:50 18° 67° (ENE) 1,023 3.0 -16.0°
